Location: Newark
(7.0858°N, 171.3717°E)
Time: 20:02:03
(UTC+00:00)

Vanguard 2 - Pass Details

Date: 29 November 2020
Orbit: 553 x 2937 km, 32.9° (Epoch: 17 January)

Event Time Altitude Azimuth Distance (km) Brightness Sun altitude
Rises 17:55:58 0° 228° (SW) 6,499 12.0 -8.9°
Reaches altitude 10° 18:00:47 10° 225° (SW) 5,237 11.5 -7.8°
Maximum altitude 18:14:58 63° 147° (SSE) 1,966 9.9 -4.5°
Drops below altitude 10° 18:23:27 10° 68° (ENE) 3,267 11.5 -2.5°
Sets 18:25:46 0° 65° (ENE) 3,984 11.9 -2.0°
